contact:dominique.lefevre@mio.osupytheas.fr, maurice.libes@osupytheas.fr, didier.mallarino@osupytheas.fr
Project:EMSO http://www.emso-fr.org/EMSO-France
Depth: 2436.0 m
Title:EMSO Ligure Ouest : Data MII capteur AQUADOPP
Date,Latitude,Longitude,X_East,Y_North,Z_Up,Amplitude_X,Amplitude_Y,Amplitude_Z,Batterie,SoundSpeed,Heading,Pitch,Roll,Pressure,TIS,Speed,Direction
, degrees North, degrees East, m.s-1, m.s-1,m.s-1, 1, 1, 1, Volt, m.s-1, degree, degree, degree, dbar, degree_C, m.s-1, degree
2022-04-19T00:04:03,42.805,6.029,-0.035,0.003,-0.008,105.0,107.0,104.0,13.4,1505.2,324.9,-0.8,1.9,2470.809,13.28,0.035,274.9
2022-04-19T00:07:03,42.805,6.029,-0.054,-0.016,-0.017,106.0,105.0,104.0,13.4,1505.2,325.7,-0.8,1.8,2470.787,13.28,0.056,253.5
2022-04-19T00:10:03,42.805,6.029,-0.035,-0.017,-0.013,106.0,103.0,103.0,13.4,1505.2,331.6,-0.8,1.8,2470.781,13.28,0.038,244.1
2022-04-19T00:13:03,42.805,6.029,-0.03,-0.017,-0.004,108.0,106.0,103.0,13.4,1505.2,326.2,-0.7,1.8,2470.803,13.28,0.034,240.5
2022-04-19T00:16:03,42.805,6.029,-0.03,-0.02,-0.007,106.0,107.0,104.0,13.4,1505.2,328.1,-0.8,1.8,2470.772,13.29,0.036,236.3
2022-04-19T00:19:03,42.805,6.029,-0.024,-0.008,0.009,106.0,106.0,105.0,13.4,1505.2,330.4,-0.8,1.8,2470.814,13.29,0.025,251.6
2022-04-19T00:22:03,42.805,6.029,-0.012,-0.003,0.004,106.0,106.0,104.0,13.4,1505.2,329.2,-0.8,1.8,2470.808,13.29,0.012,256.0
2022-04-19T00:25:03,42.805,6.029,-0.031,-0.033,-0.029,106.0,105.0,103.0,13.4,1505.2,332.2,-0.7,1.8,2470.777,13.29,0.045,223.2
2022-04-19T00:28:03,42.805,6.029,-0.048,-0.001,-0.012,105.0,105.0,103.0,13.4,1505.2,329.1,-0.7,1.8,2470.768,13.29,0.048,268.8
2022-04-19T00:31:03,42.805,6.029,-0.023,0.005,0.003,106.0,106.0,102.0,13.4,1505.2,325.6,-0.7,1.8,2470.743,13.29,0.023,282.3
2022-04-19T00:34:03,42.805,6.029,-0.032,-0.046,0.023,106.0,105.0,103.0,13.3,1505.2,330.1,-0.8,1.8,2470.808,13.29,0.056,214.8
2022-04-19T00:37:03,42.805,6.029,-0.027,-0.007,-0.024,105.0,105.0,103.0,13.3,1505.2,329.2,-0.8,1.8,2470.761,13.29,0.027,255.5
2022-04-19T00:40:03,42.805,6.029,-0.038,-0.002,-0.01,105.0,105.0,103.0,13.4,1505.2,326.3,-0.8,1.8,2470.785,13.29,0.038,267.0
2022-04-19T00:43:03,42.805,6.029,-0.029,0.005,0.003,106.0,106.0,103.0,13.3,1505.2,328.1,-0.8,1.9,2470.788,13.29,0.029,279.8
2022-04-19T00:46:03,42.805,6.029,-0.032,-0.022,-0.027,105.0,105.0,104.0,13.3,1505.2,329.0,-0.7,1.9,2470.729,13.29,0.038,235.5
2022-04-19T00:49:03,42.805,6.029,-0.024,-0.015,-0.01,106.0,105.0,105.0,13.4,1505.2,331.5,-0.7,1.8,2470.772,13.29,0.028,238.0
2022-04-19T00:52:03,42.805,6.029,-0.026,-0.009,-0.022,106.0,105.0,104.0,13.4,1505.2,327.9,-0.7,1.8,2470.742,13.29,0.027,250.9
2022-04-19T00:55:03,42.805,6.029,-0.046,-0.005,0.001,105.0,105.0,103.0,13.3,1505.2,322.6,-0.8,1.8,2470.703,13.29,0.046,263.8
2022-04-19T00:58:03,42.805,6.029,-0.034,-0.016,-0.041,106.0,105.0,103.0,13.4,1505.2,327.3,-0.8,1.8,2470.732,13.29,0.037,244.8
2022-04-19T01:04:03,42.805,6.029,-0.037,-0.018,-0.031,106.0,106.0,103.0,13.4,1505.2,326.4,-0.8,1.8,2470.78,13.28,0.041,244.1
2022-04-19T01:07:03,42.805,6.029,-0.033,-0.025,-0.004,105.0,105.0,104.0,13.4,1505.2,323.8,-0.7,1.8,2470.683,13.28,0.041,232.9
2022-04-19T01:10:03,42.805,6.029,-0.041,-0.005,-0.033,107.0,107.0,104.0,13.4,1505.2,332.4,-0.8,1.8,2470.705,13.28,0.041,263.0
2022-04-19T01:13:03,42.805,6.029,-0.019,-0.035,-0.013,106.0,105.0,104.0,13.4,1505.2,325.4,-0.8,1.8,2470.754,13.28,0.039,208.5
2022-04-19T01:16:03,42.805,6.029,-0.032,-0.034,-0.032,106.0,105.0,104.0,13.4,1505.2,321.4,-0.8,1.8,2470.727,13.28,0.046,223.3
2022-04-19T01:19:03,42.805,6.029,-0.036,-0.02,0.013,106.0,107.0,103.0,13.4,1505.2,326.3,-0.8,1.8,2470.76,13.28,0.041,240.9
2022-04-19T01:22:03,42.805,6.029,-0.015,-0.004,-0.007,103.0,107.0,105.0,13.4,1505.2,333.8,-0.7,1.8,2470.729,13.29,0.015,255.1
2022-04-19T01:25:03,42.805,6.029,-0.025,-0.025,-0.006,106.0,104.0,103.0,13.3,1505.2,323.3,-0.8,1.8,2470.72,13.29,0.035,225.0
2022-04-19T01:28:03,42.805,6.029,-0.045,-0.019,-0.007,105.0,106.0,104.0,13.4,1505.2,322.6,-0.8,1.8,2470.74,13.29,0.048,247.1
2022-04-19T01:31:03,42.805,6.029,-0.03,-0.036,-0.002,107.0,105.0,104.0,13.4,1505.2,321.7,-0.8,1.8,2470.696,13.29,0.046,219.8
2022-04-19T01:34:03,42.805,6.029,-0.035,-0.027,-0.01,106.0,103.0,104.0,13.3,1505.2,322.3,-0.7,1.8,2470.709,13.29,0.044,232.3
2022-04-19T01:37:03,42.805,6.029,-0.039,-0.027,-0.011,106.0,107.0,103.0,13.4,1505.2,331.7,-0.7,1.8,2470.707,13.29,0.047,235.3
2022-04-19T01:40:03,42.805,6.029,-0.035,-0.023,0.008,106.0,104.0,103.0,13.4,1505.2,329.1,-0.8,1.8,2470.715,13.29,0.041,236.7
2022-04-19T01:43:03,42.805,6.029,-0.038,-0.029,0.009,105.0,104.0,103.0,13.4,1505.2,331.2,-0.8,1.8,2470.677,13.29,0.047,232.7
2022-04-19T01:46:03,42.805,6.029,-0.036,-0.021,0.019,106.0,105.0,103.0,13.4,1505.2,326.4,-0.7,1.9,2470.701,13.29,0.041,239.7
2022-04-19T01:49:03,42.805,6.029,-0.021,-0.024,-0.019,105.0,105.0,103.0,13.4,1505.2,325.0,-0.8,1.8,2470.726,13.28,0.031,221.2
2022-04-19T01:52:03,42.805,6.029,-0.034,-0.028,0.003,106.0,105.0,105.0,13.4,1505.2,332.5,-0.8,1.8,2470.703,13.29,0.044,230.5
2022-04-19T01:55:03,42.805,6.029,-0.03,-0.019,-0.024,106.0,106.0,102.0,13.4,1505.2,322.1,-0.8,1.8,2470.668,13.29,0.035,237.7
2022-04-19T01:58:03,42.805,6.029,-0.023,-0.017,-0.002,107.0,104.0,104.0,13.4,1505.2,327.3,-0.8,1.8,2470.688,13.29,0.028,233.5
2022-04-19T02:04:03,42.805,6.029,-0.037,-0.022,-0.01,107.0,105.0,102.0,13.4,1505.2,332.8,-0.8,1.8,2470.732,13.28,0.043,239.3
2022-04-19T02:07:03,42.805,6.029,-0.035,-0.026,0.015,106.0,105.0,103.0,13.3,1505.2,330.7,-0.8,1.8,2470.731,13.28,0.043,233.4
2022-04-19T02:10:03,42.805,6.029,-0.05,-0.032,-0.017,106.0,105.0,103.0,13.3,1505.2,325.3,-0.8,1.8,2470.707,13.28,0.059,237.4
2022-04-19T02:13:03,42.805,6.029,-0.031,-0.019,-0.001,106.0,105.0,104.0,13.4,1505.2,330.4,-0.8,1.8,2470.693,13.28,0.036,238.5
2022-04-19T02:16:03,42.805,6.029,-0.026,-0.013,0.02,106.0,106.0,104.0,13.3,1505.2,321.6,-0.8,1.8,2470.704,13.28,0.029,243.4
2022-04-19T02:19:03,42.805,6.029,-0.04,-0.014,-0.008,106.0,106.0,103.0,13.4,1505.2,328.6,-0.8,1.8,2470.719,13.28,0.042,250.7
2022-04-19T02:22:03,42.805,6.029,-0.045,-0.012,-0.018,106.0,105.0,103.0,13.4,1505.2,326.0,-0.8,1.8,2470.71,13.28,0.046,255.1
2022-04-19T02:25:03,42.805,6.029,-0.032,-0.016,-0.014,107.0,104.0,104.0,13.4,1505.2,328.3,-0.7,1.8,2470.687,13.28,0.035,243.4
2022-04-19T02:28:03,42.805,6.029,-0.042,-0.016,-0.053,106.0,105.0,103.0,13.3,1505.2,325.3,-0.7,1.8,2470.695,13.28,0.044,249.1
2022-04-19T02:31:03,42.805,6.029,-0.058,-0.037,-0.015,106.0,105.0,102.0,13.3,1505.2,321.4,-0.8,1.8,2470.694,13.28,0.068,237.5
2022-04-19T02:34:03,42.805,6.029,-0.035,-0.004,0.027,106.0,104.0,102.0,13.4,1505.2,329.3,-0.7,1.8,2470.683,13.28,0.035,263.5
2022-04-19T02:37:03,42.805,6.029,-0.054,-0.009,-0.017,105.0,105.0,104.0,13.4,1505.2,325.4,-0.8,1.8,2470.676,13.29,0.054,260.5
2022-04-19T02:40:03,42.805,6.029,-0.033,-0.006,-0.011,107.0,105.0,103.0,13.3,1505.2,328.0,-0.7,1.8,2470.708,13.29,0.033,259.7
2022-04-19T02:43:03,42.805,6.029,-0.024,-0.008,-0.005,106.0,106.0,104.0,13.3,1505.2,328.4,-0.8,1.8,2470.705,13.28,0.025,251.6
2022-04-19T02:46:03,42.805,6.029,-0.036,-0.038,-0.028,106.0,106.0,104.0,13.4,1505.2,326.9,-0.7,1.8,2470.733,13.29,0.052,223.5
2022-04-19T02:49:03,42.805,6.029,-0.048,-0.008,-0.006,106.0,105.0,105.0,13.4,1505.2,332.2,-0.8,1.8,2470.683,13.29,0.048,260.5
2022-04-19T02:52:03,42.805,6.029,-0.035,-0.012,-0.02,106.0,105.0,103.0,13.4,1505.2,322.3,-0.8,1.8,2470.691,13.28,0.037,251.1
2022-04-19T02:55:03,42.805,6.029,-0.055,-0.009,-0.03,106.0,105.0,103.0,13.3,1505.2,329.1,-0.7,1.9,2470.677,13.28,0.055,260.7
2022-04-19T02:58:03,42.805,6.029,-0.05,-0.031,-0.023,105.0,104.0,104.0,13.4,1505.2,331.3,-0.7,1.8,2470.69,13.28,0.058,238.2
2022-04-19T03:04:03,42.805,6.029,-0.032,-0.017,0.005,105.0,107.0,104.0,13.4,1505.2,325.6,-0.8,1.9,2470.717,13.28,0.036,242.0
2022-04-19T03:07:03,42.805,6.029,-0.051,-0.028,-0.013,105.0,106.0,103.0,13.4,1505.2,325.5,-0.8,1.8,2470.7,13.28,0.058,241.2
2022-04-19T03:10:03,42.805,6.029,-0.018,-0.002,0.006,106.0,105.0,102.0,13.3,1505.2,324.7,-0.8,1.8,2470.743,13.28,0.018,263.7
2022-04-19T03:13:03,42.805,6.029,-0.033,-0.021,-0.004,106.0,105.0,103.0,13.4,1505.2,323.1,-0.7,1.8,2470.688,13.28,0.039,237.5
2022-04-19T03:16:03,42.805,6.029,-0.025,-0.03,-0.022,105.0,104.0,103.0,13.4,1505.2,332.5,-0.8,1.8,2470.71,13.28,0.039,219.8
2022-04-19T03:19:03,42.805,6.029,-0.033,-0.018,0.0,104.0,105.0,102.0,13.4,1505.2,328.4,-0.8,1.8,2470.711,13.28,0.037,241.4
2022-04-19T03:22:03,42.805,6.029,-0.025,-0.018,-0.014,106.0,104.0,101.0,13.3,1505.2,326.8,-0.8,1.8,2470.678,13.28,0.03,234.2
2022-04-19T03:25:03,42.805,6.029,-0.048,-0.032,-0.01,106.0,105.0,104.0,13.4,1505.2,326.2,-0.8,1.8,2470.713,13.28,0.057,236.3
2022-04-19T03:28:03,42.805,6.029,-0.04,-0.017,-0.026,105.0,106.0,103.0,13.4,1505.2,325.9,-0.8,1.8,2470.69,13.28,0.043,247.0
2022-04-19T03:31:03,42.805,6.029,-0.033,-0.032,-0.023,105.0,105.0,103.0,13.4,1505.2,324.5,-0.8,1.8,2470.707,13.28,0.045,225.9
2022-04-19T03:34:03,42.805,6.029,-0.035,-0.015,-0.004,105.0,104.0,104.0,13.4,1505.2,323.3,-0.8,1.8,2470.666,13.28,0.038,246.8
2022-04-19T03:37:03,42.805,6.029,-0.038,-0.019,-0.028,104.0,105.0,103.0,13.3,1505.2,325.9,-0.8,1.8,2470.707,13.28,0.042,243.4
2022-04-19T03:40:03,42.805,6.029,-0.042,-0.017,-0.022,105.0,105.0,102.0,13.4,1505.2,328.7,-0.8,1.8,2470.704,13.28,0.045,248.0
2022-04-19T03:43:03,42.805,6.029,-0.045,-0.029,-0.026,106.0,105.0,103.0,13.4,1505.2,322.5,-0.7,1.8,2470.699,13.28,0.053,237.2
2022-04-19T03:46:03,42.805,6.029,-0.043,-0.028,-0.001,106.0,105.0,103.0,13.4,1505.2,326.7,-0.8,1.8,2470.676,13.28,0.051,236.9
2022-04-19T03:49:03,42.805,6.029,-0.031,-0.027,-0.034,105.0,106.0,104.0,13.4,1505.2,326.6,-0.8,1.9,2470.691,13.29,0.041,228.9
2022-04-19T03:52:03,42.805,6.029,-0.036,-0.019,-0.001,107.0,105.0,102.0,13.4,1505.2,323.2,-0.7,1.8,2470.71,13.28,0.04,242.2
2022-04-19T03:55:03,42.805,6.029,-0.028,-0.012,0.005,106.0,104.0,103.0,13.4,1505.2,324.8,-0.7,1.8,2470.649,13.28,0.03,246.8
2022-04-19T03:58:03,42.805,6.029,-0.054,-0.017,-0.013,106.0,105.0,103.0,13.4,1505.2,325.8,-0.8,1.8,2470.66,13.28,0.056,252.5
2022-04-19T04:04:03,42.805,6.029,-0.038,-0.023,0.011,105.0,105.0,104.0,13.4,1505.2,328.0,-0.8,1.8,2470.754,13.28,0.044,238.8
2022-04-19T04:07:03,42.805,6.029,-0.05,-0.011,-0.014,105.0,105.0,104.0,13.4,1505.2,328.2,-0.8,1.8,2470.708,13.28,0.051,257.6
2022-04-19T04:10:03,42.805,6.029,-0.041,-0.016,-0.032,106.0,105.0,102.0,13.3,1505.2,329.2,-0.7,1.8,2470.701,13.28,0.044,248.7
2022-04-19T04:13:03,42.805,6.029,-0.03,-0.02,0.0,105.0,107.0,104.0,13.4,1505.2,321.6,-0.8,1.8,2470.76,13.28,0.036,236.3
2022-04-19T04:16:03,42.805,6.029,-0.024,-0.023,0.022,106.0,106.0,104.0,13.3,1505.2,332.5,-0.7,1.8,2470.724,13.28,0.033,226.2
2022-04-19T04:19:03,42.805,6.029,-0.043,-0.005,0.004,106.0,105.0,102.0,13.4,1505.2,328.6,-0.7,1.8,2470.716,13.28,0.043,263.4
2022-04-19T04:22:03,42.805,6.029,-0.041,-0.014,-0.035,106.0,106.0,104.0,13.3,1505.2,323.9,-0.7,1.8,2470.743,13.28,0.043,251.1
2022-04-19T04:25:03,42.805,6.029,-0.043,0.004,0.0,106.0,105.0,104.0,13.4,1505.2,329.6,-0.8,1.9,2470.733,13.28,0.043,275.3
2022-04-19T04:28:03,42.805,6.029,-0.051,-0.017,-0.021,105.0,104.0,104.0,13.4,1505.2,323.6,-0.8,1.8,2470.675,13.28,0.053,251.6
2022-04-19T04:31:03,42.805,6.029,-0.041,-0.025,-0.018,105.0,105.0,103.0,13.4,1505.2,324.0,-0.7,1.8,2470.717,13.28,0.048,238.6
2022-04-19T04:34:03,42.805,6.029,-0.041,-0.032,-0.008,106.0,105.0,102.0,13.4,1505.2,325.7,-0.7,1.8,2470.738,13.28,0.052,232.0
2022-04-19T04:37:03,42.805,6.029,-0.037,-0.029,0.001,105.0,105.0,103.0,13.3,1505.2,322.9,-0.7,1.8,2470.698,13.28,0.047,231.9
2022-04-19T04:40:03,42.805,6.029,-0.039,-0.017,-0.013,105.0,105.0,103.0,13.4,1505.2,329.6,-0.8,1.8,2470.72,13.28,0.042,246.5
2022-04-19T04:43:03,42.805,6.029,-0.018,-0.011,0.011,105.0,104.0,103.0,13.3,1505.2,322.8,-0.8,1.8,2470.721,13.28,0.021,238.6
2022-04-19T04:46:03,42.805,6.029,-0.035,-0.029,-0.031,106.0,103.0,104.0,13.4,1505.2,329.7,-0.8,1.8,2470.729,13.28,0.045,230.4
2022-04-19T04:49:03,42.805,6.029,-0.036,-0.013,-0.014,105.0,104.0,102.0,13.4,1505.2,330.0,-0.7,1.8,2470.664,13.28,0.038,250.1
2022-04-19T04:52:03,42.805,6.029,-0.034,0.001,0.004,106.0,103.0,103.0,13.4,1505.2,330.7,-0.7,1.8,2470.722,13.28,0.034,271.7
2022-04-19T04:55:03,42.805,6.029,-0.046,-0.015,-0.015,105.0,104.0,104.0,13.4,1505.2,323.6,-0.7,1.8,2470.717,13.28,0.048,251.9
2022-04-19T04:58:03,42.805,6.029,-0.049,-0.005,-0.02,105.0,105.0,103.0,13.4,1505.2,329.4,-0.8,1.8,2470.692,13.28,0.049,264.2
2022-04-19T05:04:03,42.805,6.029,-0.04,-0.031,-0.02,105.0,104.0,102.0,13.4,1505.2,325.3,-0.8,1.8,2470.74,13.28,0.05,232.2
2022-04-19T05:07:03,42.805,6.029,-0.056,0.009,0.004,105.0,105.0,103.0,13.3,1505.2,330.0,-0.8,1.8,2470.769,13.28,0.056,279.1
2022-04-19T05:10:03,42.805,6.029,-0.04,-0.003,-0.008,105.0,104.0,103.0,13.3,1505.2,330.9,-0.8,1.8,2470.738,13.28,0.04,265.7
2022-04-19T05:13:03,42.805,6.029,-0.043,-0.027,-0.013,106.0,104.0,103.0,13.3,1505.2,324.2,-0.8,1.8,2470.744,13.28,0.05,237.9
2022-04-19T05:16:03,42.805,6.029,-0.045,-0.002,-0.021,105.0,104.0,103.0,13.4,1505.2,324.3,-0.8,1.8,2470.755,13.28,0.045,267.5
2022-04-19T05:19:03,42.805,6.029,-0.037,-0.015,0.0,104.0,105.0,103.0,13.3,1505.2,326.5,-0.8,1.8,2470.749,13.28,0.039,247.9
2022-04-19T05:22:03,42.805,6.029,-0.046,-0.018,-0.002,105.0,105.0,104.0,13.3,1505.2,328.8,-0.7,1.8,2470.739,13.28,0.049,248.6
2022-04-19T05:25:03,42.805,6.029,-0.032,0.004,-0.007,105.0,104.0,103.0,13.3,1505.2,326.4,-0.7,1.8,2470.74,13.28,0.032,277.1
2022-04-19T05:28:03,42.805,6.029,-0.038,-0.009,-0.021,104.0,104.0,103.0,13.4,1505.2,325.9,-0.7,1.8,2470.749,13.29,0.039,256.7
2022-04-19T05:31:03,42.805,6.029,-0.039,-0.006,-0.012,106.0,104.0,103.0,13.4,1505.2,330.1,-0.8,1.8,2470.746,13.29,0.039,261.3
2022-04-19T05:34:03,42.805,6.029,-0.04,-0.019,-0.012,105.0,106.0,103.0,13.3,1505.2,323.5,-0.8,1.8,2470.715,13.29,0.044,244.6
2022-04-19T05:37:03,42.805,6.029,-0.054,-0.015,-0.006,105.0,104.0,103.0,13.3,1505.2,329.3,-0.8,1.8,2470.77,13.29,0.056,254.5
2022-04-19T05:40:03,42.805,6.029,-0.038,-0.015,-0.014,106.0,104.0,103.0,13.4,1505.2,328.7,-0.8,1.8,2470.777,13.28,0.04,248.5
2022-04-19T05:43:03,42.805,6.029,-0.041,0.009,0.014,106.0,104.0,103.0,13.4,1505.2,328.6,-0.8,1.8,2470.749,13.28,0.041,282.4
2022-04-19T05:46:03,42.805,6.029,-0.033,-0.025,0.005,106.0,105.0,103.0,13.3,1505.2,329.2,-0.7,1.8,2470.757,13.28,0.041,232.9
2022-04-19T05:49:03,42.805,6.029,-0.025,-0.035,-0.004,106.0,105.0,103.0,13.4,1505.2,326.5,-0.8,1.8,2470.739,13.28,0.043,215.5
2022-04-19T05:52:03,42.805,6.029,-0.027,-0.009,-0.005,107.0,104.0,102.0,13.3,1505.2,329.6,-0.7,1.8,2470.753,13.28,0.028,251.6
2022-04-19T05:55:03,42.805,6.029,-0.042,-0.021,0.014,106.0,105.0,103.0,13.3,1505.2,326.4,-0.8,1.8,2470.725,13.29,0.046,243.4
2022-04-19T05:58:03,42.805,6.029,-0.054,-0.022,-0.018,106.0,105.0,103.0,13.4,1505.2,324.9,-0.7,1.9,2470.772,13.29,0.058,247.8
2022-04-19T06:01:03,42.805,6.029,-0.035,-0.036,-0.042,107.0,104.0,103.0,13.4,1505.2,328.9,-0.8,1.8,2470.738,13.29,0.05,224.2
2022-04-19T06:04:03,42.805,6.029,-0.025,-0.017,-0.008,106.0,105.0,103.0,13.4,1505.2,321.9,-0.7,1.9,2470.781,13.29,0.03,235.8
2022-04-19T06:07:03,42.805,6.029,-0.042,-0.031,-0.002,106.0,105.0,103.0,13.4,1505.2,329.3,-0.8,1.8,2470.777,13.28,0.052,233.6
2022-04-19T06:10:03,42.805,6.029,-0.041,-0.027,-0.006,106.0,105.0,103.0,13.4,1505.2,322.5,-0.7,1.8,2470.757,13.29,0.049,236.6
2022-04-19T06:13:03,42.805,6.029,-0.047,-0.012,-0.017,105.0,104.0,103.0,13.4,1505.2,331.9,-0.8,1.8,2470.759,13.29,0.048,255.7
2022-04-19T06:16:03,42.805,6.029,-0.06,-0.02,-0.017,106.0,105.0,103.0,13.4,1505.2,322.0,-0.7,1.8,2470.798,13.29,0.063,251.6
2022-04-19T06:19:03,42.805,6.029,-0.051,-0.006,-0.026,106.0,105.0,103.0,13.4,1505.2,325.9,-0.8,1.8,2470.777,13.28,0.051,263.3
2022-04-19T06:22:03,42.805,6.029,-0.048,0.006,0.005,106.0,105.0,102.0,13.4,1505.2,324.1,-0.8,1.8,2470.85,13.29,0.048,277.1
2022-04-19T06:25:03,42.805,6.029,-0.065,-0.006,-0.026,104.0,105.0,104.0,13.4,1505.2,332.8,-0.8,1.9,2470.823,13.29,0.065,264.7
2022-04-19T06:28:03,42.805,6.029,-0.005,-0.019,-0.006,105.0,105.0,103.0,13.4,1505.2,332.7,-0.7,1.8,2470.778,13.29,0.019,194.7
2022-04-19T06:31:03,42.805,6.029,-0.038,-0.012,-0.004,105.0,105.0,104.0,13.4,1505.2,331.1,-0.7,1.8,2470.765,13.29,0.039,252.5
2022-04-19T06:34:03,42.805,6.029,-0.027,-0.008,-0.003,106.0,106.0,104.0,13.4,1505.2,328.7,-0.8,1.8,2470.832,13.29,0.028,253.5
2022-04-19T06:37:03,42.805,6.029,-0.052,-0.011,0.006,105.0,104.0,104.0,13.3,1505.2,328.2,-0.8,1.8,2470.852,13.29,0.053,258.1
2022-04-19T06:40:03,42.805,6.029,-0.045,-0.006,-0.032,105.0,105.0,102.0,13.4,1505.2,324.6,-0.7,1.8,2470.803,13.29,0.045,262.4
2022-04-19T06:43:03,42.805,6.029,-0.033,-0.007,-0.016,106.0,107.0,104.0,13.4,1505.2,323.7,-0.8,1.8,2470.83,13.29,0.033,258.0
2022-04-19T06:46:03,42.805,6.029,-0.035,-0.005,0.007,106.0,106.0,103.0,13.3,1505.2,327.4,-0.7,1.8,2470.835,13.29,0.035,261.9
2022-04-19T06:49:03,42.805,6.029,-0.03,-0.033,-0.05,106.0,106.0,103.0,13.4,1505.2,321.8,-0.7,1.8,2470.858,13.29,0.044,222.3
2022-04-19T06:52:03,42.805,6.029,-0.022,-0.008,-0.033,106.0,105.0,103.0,13.4,1505.2,330.7,-0.7,1.8,2470.804,13.29,0.023,250.0
2022-04-19T06:55:03,42.805,6.029,-0.035,-0.008,-0.01,106.0,106.0,102.0,13.4,1505.2,328.2,-0.7,1.8,2470.837,13.29,0.035,257.1
2022-04-19T06:58:03,42.805,6.029,-0.024,-0.011,-0.011,107.0,104.0,104.0,13.4,1505.2,328.1,-0.8,1.8,2470.826,13.29,0.026,245.4
2022-04-19T07:04:03,42.805,6.029,-0.051,0.002,0.004,106.0,105.0,103.0,13.3,1505.2,332.1,-0.8,1.8,2470.871,13.28,0.051,272.2
2022-04-19T07:07:03,42.805,6.029,-0.028,0.002,-0.004,106.0,104.0,103.0,13.3,1505.2,331.9,-0.8,1.8,2470.851,13.28,0.028,274.1
2022-04-19T07:10:03,42.805,6.029,-0.023,0.002,0.0,106.0,106.0,104.0,13.4,1505.2,325.2,-0.7,1.8,2470.873,13.28,0.023,275.0
2022-04-19T07:13:03,42.805,6.029,-0.042,-0.005,-0.003,106.0,105.0,103.0,13.4,1505.2,321.6,-0.8,1.8,2470.863,13.28,0.042,263.2
2022-04-19T07:16:03,42.805,6.029,-0.026,-0.012,-0.007,106.0,104.0,104.0,13.3,1505.2,324.6,-0.7,1.8,2470.882,13.28,0.028,245.2
2022-04-19T07:19:03,42.805,6.029,-0.045,0.006,-0.002,105.0,106.0,102.0,13.3,1505.2,332.8,-0.7,1.8,2470.88,13.28,0.045,277.6
2022-04-19T07:22:03,42.805,6.029,-0.032,-0.005,-0.04,106.0,104.0,102.0,13.4,1505.2,324.4,-0.7,1.8,2470.89,13.29,0.032,261.1
2022-04-19T07:25:03,42.805,6.029,-0.048,-0.017,-0.014,105.0,104.0,103.0,13.4,1505.2,322.4,-0.7,1.8,2470.843,13.29,0.05,250.5
2022-04-19T07:28:03,42.805,6.029,-0.046,0.0,-0.02,106.0,105.0,103.0,13.4,1505.2,329.5,-0.8,1.8,2470.853,13.29,0.046,270.0
2022-04-19T07:31:03,42.805,6.029,-0.041,-0.01,0.012,106.0,106.0,104.0,13.4,1505.2,326.8,-0.7,1.8,2470.878,13.29,0.042,256.3
2022-04-19T07:34:03,42.805,6.029,-0.034,-0.008,-0.019,107.0,104.0,103.0,13.4,1505.2,326.6,-0.8,1.8,2470.864,13.29,0.034,256.8
2022-04-19T07:37:03,42.805,6.029,-0.028,0.012,-0.006,105.0,105.0,102.0,13.4,1505.2,328.6,-0.8,1.8,2470.835,13.29,0.03,293.2
2022-04-19T07:40:03,42.805,6.029,-0.036,-0.019,-0.027,105.0,106.0,103.0,13.3,1505.2,322.2,-0.8,1.8,2470.873,13.29,0.04,242.2
2022-04-19T07:43:03,42.805,6.029,-0.027,-0.008,-0.037,106.0,106.0,103.0,13.3,1505.2,323.9,-0.8,1.8,2470.849,13.29,0.028,253.5
2022-04-19T07:46:03,42.805,6.029,-0.036,-0.005,0.003,106.0,108.0,103.0,13.4,1505.2,333.2,-0.8,1.8,2470.861,13.29,0.036,262.1
2022-04-19T07:49:03,42.805,6.029,-0.05,-0.019,0.003,106.0,107.0,104.0,13.3,1505.2,328.5,-0.8,1.8,2470.851,13.29,0.053,249.2
2022-04-19T07:52:03,42.805,6.029,-0.043,-0.011,-0.034,106.0,106.0,103.0,13.3,1505.2,325.8,-0.7,1.8,2470.863,13.29,0.044,255.7
2022-04-19T07:55:03,42.805,6.029,-0.042,-0.023,-0.018,106.0,107.0,103.0,13.4,1505.2,330.4,-0.8,1.8,2470.867,13.29,0.047,241.3
2022-04-19T07:58:03,42.805,6.029,-0.04,0.007,-0.019,107.0,105.0,104.0,13.4,1505.2,332.6,-0.8,1.8,2470.83,13.29,0.04,279.9
2022-04-19T08:04:03,42.805,6.029,-0.048,-0.021,-0.004,106.0,106.0,105.0,13.4,1505.2,331.4,-0.8,1.8,2470.862,13.28,0.052,246.4
2022-04-19T08:07:03,42.805,6.029,-0.014,-0.033,-0.026,106.0,105.0,104.0,13.3,1505.2,322.5,-0.7,1.8,2470.882,13.28,0.035,203.0
2022-04-19T08:10:03,42.805,6.029,-0.019,-0.028,-0.003,105.0,105.0,104.0,13.3,1505.2,324.7,-0.7,1.8,2470.898,13.28,0.033,214.2
2022-04-19T08:13:03,42.805,6.029,-0.039,-0.002,0.005,107.0,107.0,105.0,13.4,1505.2,322.8,-0.8,1.8,2470.814,13.28,0.039,267.1
2022-04-19T08:16:03,42.805,6.029,-0.04,-0.027,-0.02,107.0,105.0,104.0,13.3,1505.2,326.5,-0.7,1.8,2470.826,13.28,0.048,236.0
2022-04-19T08:19:03,42.805,6.029,-0.039,-0.011,-0.036,106.0,106.0,104.0,13.4,1505.2,329.0,-0.8,1.8,2470.867,13.28,0.04,254.3
2022-04-19T08:22:03,42.805,6.029,-0.03,-0.022,-0.017,106.0,107.0,104.0,13.4,1505.2,322.5,-0.8,1.8,2470.863,13.28,0.037,233.7
2022-04-19T08:25:03,42.805,6.029,-0.036,-0.021,-0.036,107.0,106.0,103.0,13.4,1505.2,328.2,-0.8,1.9,2470.877,13.29,0.041,239.7
2022-04-19T08:28:03,42.805,6.029,-0.049,-0.027,0.001,107.0,106.0,103.0,13.3,1505.2,326.4,-0.8,1.8,2470.864,13.29,0.055,241.1
2022-04-19T08:31:03,42.805,6.029,-0.035,-0.026,-0.011,107.0,106.0,104.0,13.4,1505.2,326.0,-0.8,1.8,2470.807,13.29,0.043,233.4
2022-04-19T08:34:03,42.805,6.029,-0.034,-0.019,-0.015,108.0,106.0,104.0,13.4,1505.2,331.3,-0.8,1.8,2470.836,13.29,0.038,240.8
2022-04-19T08:37:03,42.805,6.029,-0.036,-0.016,-0.005,108.0,106.0,105.0,13.4,1505.2,330.7,-0.7,1.8,2470.856,13.29,0.039,246.0
2022-04-19T08:40:03,42.805,6.029,-0.047,-0.001,0.033,107.0,106.0,104.0,13.4,1505.2,332.1,-0.8,1.8,2470.836,13.29,0.047,268.8
2022-04-19T08:43:03,42.805,6.029,-0.03,0.009,-0.031,107.0,106.0,104.0,13.3,1505.2,330.0,-0.8,1.8,2470.808,13.29,0.031,286.7
2022-04-19T08:46:03,42.805,6.029,-0.051,-0.011,-0.009,108.0,106.0,104.0,13.4,1505.2,326.2,-0.7,1.8,2470.796,13.29,0.052,257.8
2022-04-19T08:49:03,42.805,6.029,-0.044,-0.005,-0.004,109.0,107.0,103.0,13.4,1505.2,321.3,-0.7,1.8,2470.771,13.29,0.044,263.5
2022-04-19T08:52:03,42.805,6.029,-0.037,-0.019,-0.012,107.0,106.0,105.0,13.4,1505.2,328.2,-0.8,1.9,2470.774,13.29,0.041,242.8
2022-04-19T08:55:03,42.805,6.029,-0.04,-0.027,-0.012,107.0,106.0,104.0,13.3,1505.2,321.8,-0.7,1.8,2470.713,13.29,0.048,236.0
2022-04-19T08:58:03,42.805,6.029,-0.032,-0.02,-0.03,107.0,105.0,104.0,13.3,1505.2,328.4,-0.8,1.8,2470.768,13.29,0.037,238.0
2022-04-19T09:04:03,42.805,6.029,-0.047,-0.024,-0.02,107.0,106.0,104.0,13.3,1505.2,330.9,-0.8,1.8,2470.744,13.28,0.052,243.0
2022-04-19T09:07:03,42.805,6.029,-0.044,0.002,-0.015,108.0,106.0,104.0,13.3,1505.2,325.5,-0.8,1.8,2470.743,13.28,0.044,272.6
2022-04-19T09:10:03,42.805,6.029,-0.033,-0.019,-0.004,108.0,106.0,104.0,13.4,1505.2,325.8,-0.7,1.8,2470.768,13.28,0.038,240.1
2022-04-19T09:13:03,42.805,6.029,-0.028,0.011,-0.006,106.0,107.0,104.0,13.4,1505.2,325.1,-0.7,1.8,2470.729,13.28,0.03,291.4
2022-04-19T09:16:03,42.805,6.029,-0.027,0.0,-0.013,107.0,106.0,105.0,13.4,1505.2,330.5,-0.7,1.8,2470.738,13.28,0.026,270.0
2022-04-19T09:19:03,42.805,6.029,-0.015,-0.017,-0.003,107.0,106.0,105.0,13.3,1505.2,326.0,-0.8,1.8,2470.707,13.29,0.022,221.4
2022-04-19T09:22:03,42.805,6.029,-0.035,-0.026,-0.006,107.0,107.0,104.0,13.3,1505.2,324.7,-0.7,1.8,2470.68,13.29,0.043,233.4
2022-04-19T09:25:03,42.805,6.029,-0.039,-0.017,-0.011,106.0,106.0,104.0,13.3,1505.2,328.6,-0.8,1.8,2470.691,13.28,0.042,246.5
2022-04-19T09:28:03,42.805,6.029,-0.042,-0.007,-0.01,107.0,106.0,103.0,13.4,1505.2,330.1,-0.8,1.9,2470.708,13.29,0.042,260.5
2022-04-19T09:31:03,42.805,6.029,-0.02,-0.008,-0.014,109.0,105.0,104.0,13.3,1505.2,332.1,-0.7,1.8,2470.683,13.28,0.021,248.2
2022-04-19T09:34:03,42.805,6.029,-0.043,-0.013,-0.003,107.0,107.0,104.0,13.4,1505.2,326.1,-0.8,1.8,2470.696,13.29,0.044,253.2
2022-04-19T09:37:03,42.805,6.029,-0.042,0.02,-0.007,107.0,107.0,104.0,13.3,1505.2,332.5,-0.8,1.8,2470.723,13.29,0.046,295.5
2022-04-19T09:40:03,42.805,6.029,-0.033,-0.008,0.02,107.0,106.0,104.0,13.4,1505.2,328.9,-0.8,1.8,2470.663,13.29,0.033,256.4
2022-04-19T09:43:03,42.805,6.029,-0.054,-0.009,-0.039,107.0,106.0,104.0,13.4,1505.2,324.0,-0.8,1.8,2470.674,13.29,0.054,260.5
2022-04-19T09:46:03,42.805,6.029,-0.048,-0.039,-0.023,108.0,106.0,105.0,13.3,1505.2,323.4,-0.8,1.8,2470.685,13.29,0.061,230.9